Weather History for Medford, OR

Change the Weather History Date:

Tuesday, October 23, 2012

  Actual Average Record
Temperature  
Mean Temperature 47 °F 53 °F  
Max Temperature 54 °F 66 °F 82 °F (1929)
Min Temperature 40 °F 40 °F 25 °F (1916)
Degree Days  
Heating Degree Days 18 12  
Month to date heating degree days 147 181  
Since 1 July heating degree days 148 250  
Cooling Degree Days 0 0  
Month to date cooling degree days 11 8  
Year to date cooling degree days 960 827  
Moisture  
Dew Point 37 °F    
Average Humidity 66    
Maximum Humidity 86    
Minimum Humidity 45    
Precipitation  
Precipitation 0.10 in 0.05 in 1.09 in (1951)
Month to date precipitation 1.42 0.69  
Year to date precipitation 15.54 11.40  
Snow  
Snow 0.00 in 0.00 in - ()
Month to date snowfall 0.0 0.0  
Since 1 July snowfall 0.0 0.0  
Snow Depth 0.00 in    
Sea Level Pressure  
Sea Level Pressure 29.89 in    
Wind  
Wind Speed 3 mph (North)    
Max Wind Speed 9 mph    
Max Gust Speed 13 mph    
Visibility 10 miles    
Events Rain    
T = Trace of Precipitation, MM = Missing Value Source: NWS Daily Summary

Daily Weather History Graph

Daily Weather History Graph

Search for Another Location

Airport:

Trip Planner

Search our weather history database for the weather conditions in past years. The results will help you decide how hot, cold, wet, or windy it might be!

Date:

Astronomy

Oct. 23, 2012 Rise Set
Actual Time 7:34 AM PDT 6:16 PM PDT
Civil Twilight 7:05 AM PDT 6:44 PM PDT
Nautical Twilight 6:32 AM PDT 7:17 PM PDT
Astronomical Twilight 6:00 AM PDT 7:50 PM PDT
Moon 3:09 PM PDT (10/23) 1:25 AM PDT (10/23)
Length of Visible Light 11h 39m
Length of Day
10h 41m
Waxing Gibbous, 67% of the Moon is Illuminated
Oct 23
Waxing Gibbous
Oct 29
Full
Nov 6
Last Quarter
Nov 13
New
Nov 20
First Quarter

Hourly Weather History & Observations

Time (PDT) Temp. Windchill Dew Point Humidity Pressure Visibility Wind Dir Wind Speed Gust Speed Precip Events Conditions
12:53 AM 43.0 °F 40.3 °F 39.0 °F 86% 29.80 in 10.0 mi WSW 4.6 mph - 0.00 in Rain Light Rain
1:53 AM 41.0 °F 37.1 °F 37.9 °F 89% 29.82 in 10.0 mi North 5.8 mph - 0.00 in   Mostly Cloudy
2:53 AM 41.0 °F 39.0 °F 37.9 °F 89% 29.83 in 10.0 mi ENE 3.5 mph - 0.00 in Rain Light Rain
3:20 AM 41.0 °F 39.0 °F 37.4 °F 87% 29.84 in 4.0 mi NW 3.5 mph - 0.03 in Rain Rain
3:31 AM 41.0 °F - 37.4 °F 87% 29.83 in 5.0 mi Calm Calm - 0.05 in Rain Rain
3:49 AM 42.8 °F - 37.4 °F 81% 29.84 in 10.0 mi Calm Calm - 0.06 in Rain Light Rain
3:53 AM 42.1 °F - 37.9 °F 85% 29.85 in 10.0 mi Calm Calm - 0.06 in Rain Light Rain
4:44 AM 41.0 °F 38.0 °F 37.4 °F 87% 29.85 in 8.0 mi NNE 4.6 mph - 0.02 in Rain Light Rain
4:53 AM 41.0 °F 38.0 °F 37.9 °F 89% 29.86 in 10.0 mi NNE 4.6 mph - 0.02 in Rain Light Rain
5:53 AM 41.0 °F 39.0 °F 37.9 °F 89% 29.88 in 9.0 mi NNE 3.5 mph - 0.01 in Rain Light Rain
6:53 AM 41.0 °F - 37.9 °F 89% 29.91 in 10.0 mi Calm Calm - 0.00 in   Mostly Cloudy
7:53 AM 41.0 °F - 37.9 °F 89% 29.92 in 10.0 mi Calm Calm - N/A   Overcast
8:00 AM 41.0 °F 39.0 °F 37.4 °F 87% 29.91 in 10.0 mi North 3.5 mph - N/A   Overcast
8:21 AM 41.0 °F 38.0 °F 37.4 °F 87% 29.92 in 10.0 mi NW 4.6 mph - N/A   Overcast
8:44 AM 41.0 °F 39.0 °F 37.4 °F 87% 29.93 in 10.0 mi NW 3.5 mph - 0.00 in Rain Light Rain
8:53 AM 41.0 °F - 37.9 °F 89% 29.95 in 10.0 mi Calm Calm - 0.00 in Rain Light Rain
9:16 AM 42.8 °F - 39.2 °F 87% 29.94 in 10.0 mi Calm Calm - 0.00 in   Overcast
9:23 AM 42.8 °F - 37.4 °F 81% 29.94 in 10.0 mi Calm Calm - 0.00 in   Overcast
9:53 AM 42.8 °F - 37.4 °F 81% 29.95 in 8.0 mi Calm Calm - N/A Rain Light Rain
10:53 AM 45.0 °F - 37.9 °F 76% 29.97 in 9.0 mi Calm Calm - 0.00 in   Mostly Cloudy
11:53 AM 48.0 °F - 39.9 °F 74% 29.96 in 10.0 mi NNE 4.6 mph - N/A   Mostly Cloudy
12:53 PM 50.0 °F - 39.9 °F 68% 29.94 in 10.0 mi NNE 8.1 mph - 0.01 in   Scattered Clouds
1:53 PM 52.0 °F - 37.0 °F 57% 29.92 in 10.0 mi NNE 3.5 mph - N/A   Scattered Clouds
2:53 PM 53.1 °F - 34.0 °F 48% 29.91 in 10.0 mi Calm Calm - N/A   Scattered Clouds
3:53 PM 52.0 °F - 33.1 °F 49% 29.90 in 10.0 mi Calm Calm - N/A   Mostly Cloudy
4:53 PM 53.1 °F - 32.0 °F 45% 29.88 in 10.0 mi Calm Calm - N/A   Mostly Cloudy
5:53 PM 51.1 °F - 36.0 °F 56% 29.88 in 10.0 mi NE 8.1 mph - N/A   Overcast
6:53 PM 51.1 °F - 32.0 °F 48% 29.88 in 10.0 mi Calm Calm - N/A   Overcast
7:53 PM 50.0 °F - 33.1 °F 52% 29.88 in 10.0 mi Calm Calm - N/A   Overcast
8:53 PM 48.9 °F - 34.0 °F 56% 29.87 in 10.0 mi WSW 6.9 mph - N/A   Overcast
9:53 PM 46.9 °F - 37.0 °F 68% 29.88 in 10.0 mi WSW 3.5 mph - N/A   Overcast
10:53 PM 46.9 °F - 36.0 °F 66% 29.91 in 10.0 mi Variable 4.6 mph - N/A   Overcast
11:53 PM 44.1 °F 41.5 °F 37.9 °F 79% 29.91 in 10.0 mi North 4.6 mph - N/A   Overcast